STARLINK-35488, 66254

Orbit data source: Space-Track

STARLINK-35488, 66254 is a payload satellite owned by SpaceX/Seattle (US) in LEO that was launched on Wed, 29 Oct 2025 UTC via an FALCON 9 launch vehicle from the Air Force Eastern Test Range (AFETR). Payload-class satellites include a variety of spacecraft equipped with specific instruments for various scientific and technological missions. These include communications satellites like Starlink; space stations such as the ISS; scientific satellites like the Hubble; Earth observation satellites from companies like Planet Labs, Umbra, and HawkEye 360; GPS; miniature CubeSats for education and research; and military/defense satellites.

Loading next visibility...
Identifier
66254, 2025-245W
Orbit
LEO
Country
Flag of USUS
Related business
Manufacturer
SpaceX/Seattle
Mission
Operational Commercial Communications
Bus & Motor
STARLINK V2MO, Unknown motor
Mass
575 kg wet, ~530 kg dry
Launch date (UTC)
2025-10-29 (8 months ago)
Launch vehicle
FALCON 9
Launch site
Air Force Eastern Test Range (AFETR)
Object type
Payload
Rocket body
Debris
Shape & HBR
Box + 2 Pan, 17.7 m
Radar Cross Section
36.964 m², Large (>1 m²)

Expand to show TLE details & history
Last TLE update: 11 hours ago

TLE from 11 hours ago
0 STARLINK-35488
1 66254U 25245W   26171.38825117  .00016392  00000-0  53823-3 0  9998
2 66254  53.1590 166.6171 0001396  87.1921 272.9240 15.31735837 36988
Epoch: 2026-06-20T09:19Z
TLE epoch observation values (Epoch: 2026-06-20T09:19:04.901Z)
Latitude
-0.00002°
Longitude
118.24308°
Altitude
471.485 km
Speed
7.632 km/s
True Right ascension
11h 06m 28s
True Declination
0° 00' 00"
Sunlit
Object was in daylight at epoch
Visualization orbit readout
Latitude
Unknown
Longitude
Unknown
Altitude
Unknown
Speed
Unknown
Apparent Right ascension
Unknown
Apparent Declination
Unknown
Sunlit
N/A
Visualization observer readout
Local Sidereal Time
07:12:01
Azimuth
Unknown
Elevation
Unknown
Doppler factor
Unknown
Orbital elements
Apogee altitude
471.846 km
Perigee altitude
469.934 km
Semi-major axis
6,849.027 km
Eccentricity
0.00014
Inclination
53.159°
RAAN
166.6171°
Arg. of periapsis
87.1921°
True anomaly
272.90802°
Mean anomaly
272.924°
Eccentric anomaly
272.91601°
Mean motion
3.82913 °/min
Orbital period
94.02 mins
BSTAR
0.00053823
Loading maneuver chart data...
Computing Atmospheric mass density...
Loading historical data...
Loading historical data...
Loading historical data...
Loading historical data...
Loading historical data...
Loading historical data...
Loading historical data...

Documentation

Showing up to 5 results
|